Regional Weather Roundup
Issued by NWS

Home | Current Version | Previous Version | Graphics & Text | Print | Product List | Glossary On
Versions: 1 2 3 4 5 6 7 8 9 10 11 12 13 14 15 16 17 18 19 20 21 22 23 24 25 26 27 28 29 30 31 32 33 34 35 36 37 38 39 40 41 42 43 44 45 46 47 48 49 50
000
ASUS43 KTOP 181959
RWRKS

WEATHER ROUNDUP FOR KANSAS
NATIONAL WEATHER SERVICE GOODLAND KS
200 PM CST THU JAN 18 2018

NOTE:  "FAIR" INDICATES FEW OR NO CLOUDS BELOW 12,000 FEET WITH NO
SIGNIFICANT WEATHER AND/OR OBSTRUCTIONS TO VISIBILITY.

KSZ001>006-013>018-027>032-041>047-182100-
NORTHWEST KANSAS

CITY           SKY/WX    TMP DP  RH WIND       PRES   REMARKS
GOODLAND       CLOUDY    62  10  13 W8        29.99F
HAYS           CLOUDY    57  20  23 SW13      30.01F
HILL CITY        N/A    N/A N/A N/A MISG      29.98F
RUSSELL        CLOUDY    56  24  29 SW16      30.00F
$$

KSZ061>065-074>080-084>089-182100-
SOUTHWEST KANSAS

CITY           SKY/WX    TMP DP  RH WIND       PRES   REMARKS
DODGE CITY     CLOUDY    58  14  17 SW12      30.05F
GARDEN CITY    CLOUDY    59   7  12 SW12      30.03F
GREAT BEND     CLOUDY    56  18  22 SW14      30.04F
LIBERAL        CLOUDY    57  14  18 SW9       30.07F
$$

KSZ066>073-081>083-090>101-182100-
SOUTHEAST KANSAS

CITY           SKY/WX    TMP DP  RH WIND       PRES   REMARKS
COFFEYVILLE    SUNNY     43  20  39 S16G23    30.24F
HUTCHINSON     SUNNY     51  16  24 S17G23    30.07F
MEDICINE LODGE   N/A     52  14  22 S13       30.10F
NEWTON         SUNNY     45  18  34 S21G28    30.09F
PARSONS        SUNNY     40  21  46 S8        30.23F
WICHITA INTL   MOSUNNY   50  14  23 S22       30.11F
WICHITA JABRA  SUNNY     48  15  26 S15G26    30.11F
WICHITA MCCONL SUNNY     49  13  24 SW22      30.11F
WINFIELD       SUNNY     51  18  27 SW25G32   30.18F
$$

KSZ007>012-019>026-033>040-048>060-102>105-182100-
NORTHEAST KANSAS

CITY           SKY/WX    TMP DP  RH WIND       PRES   REMARKS
CONCORDIA      CLOUDY    43  23  45 S10       30.01F
EMPORIA        SUNNY     44  21  40 S20G29    30.10F
LAWRENCE       SUNNY     38  21  50 S8        30.14F
MANHATTAN      SUNNY     43  21  41 SW14      30.08F
OLATHE IND     SUNNY     37  20  50 S16       30.13F WCI  28
OLATHE EXE     SUNNY     36  19  50 S10G23    30.13F WCI  28
SALINA         CLOUDY    44  24  45 S14       30.06F
TOPEKA BILLARD SUNNY     39  22  50 S10       30.12F WCI  32
TOPEKA FORBES  SUNNY     40  22  48 SW13      30.11S WCI  32
$$




USA.gov is the U.S. government's official web portal to all federal, state and local government web resources and services.